ProjectID,Date,Electric Generation,Electric Utility Import,Facility Electric Load
,YYYY-MM-DD,kW,kW,kW
420,2016-06-01,0.0,,0.0
420,2016-06-02,0.0,,0.0
420,2016-06-03,0.0,,0.0
420,2016-06-04,0.0,,0.0
420,2016-06-05,0.0,,0.0
420,2016-06-06,282.1125,,282.1125
420,2016-06-07,0.0,,0.0
420,2016-06-08,0.0,,0.0
420,2016-06-09,232.52166666666668,,350.586875
420,2016-06-10,812.602625,,1152.5902083333333
420,2016-06-11,804.5010000000001,,1080.1998333333333
420,2016-06-12,819.1531666666666,,1097.4997916666666
420,2016-06-13,856.9656249999999,,1108.97775
420,2016-06-14,842.6599583333333,,1108.9561666666666
420,2016-06-15,902.6855,,1171.85475
420,2016-06-16,901.1843749999999,,1142.0845833333333
420,2016-06-17,895.1811666666667,,1129.6864166666667
420,2016-06-18,873.3282083333334,,1084.2158333333334
420,2016-06-19,889.4744583333332,,1109.05675
420,2016-06-20,875.4512916666666,,1094.8719999999998
420,2016-06-21,847.0404166666667,,1034.8871666666666
420,2016-06-22,810.7152500000001,,1018.9817916666667
420,2016-06-23,957.1369166666667,,1252.7591666666667
420,2016-06-24,962.2791666666667,,1240.2177083333333
420,2016-06-25,856.4214166666667,,1031.5114583333334
420,2016-06-26,820.9730416666666,,1018.7042916666667
420,2016-06-27,785.693375,,990.6320833333333
420,2016-06-28,839.2458750000001,,1099.5964166666668
420,2016-06-29,976.953625,,1284.3619166666667
420,2016-06-30,1013.7790416666667,,1346.9294166666666
420,2016-07-01,988.2662083333333,,1304.194625
420,2016-07-02,944.7888333333334,,1227.3210416666668
420,2016-07-03,948.2024166666666,,1245.1587916666667
420,2016-07-04,948.232125,,1245.3852916666667
420,2016-07-05,966.0309583333333,,1278.2046249999999
420,2016-07-06,971.4030833333333,,1280.1787083333334
420,2016-07-07,948.6020416666667,,1231.5645
420,2016-07-08,953.9539166666667,,1254.555875
420,2016-07-09,834.3468333333334,,1018.8816250000001
420,2016-07-10,675.6239583333333,,675.6239583333333
420,2016-07-11,683.8186666666667,,780.0892083333333
420,2016-07-12,896.1861250000001,,1152.4989166666667
420,2016-07-13,900.2519166666666,,1144.2932916666666
420,2016-07-14,911.1301666666667,,1188.166
420,2016-07-15,911.4325416666667,,1186.875125
420,2016-07-16,911.93975,,1184.1894166666666
420,2016-07-17,914.356375,,1186.38025
420,2016-07-18,910.0620416666667,,1181.896875
420,2016-07-19,914.7520833333333,,1186.3610416666666
420,2016-07-20,856.1987916666667,,1075.356
420,2016-07-21,904.9367916666666,,1172.804625
420,2016-07-22,892.476,,1147.0076666666666
420,2016-07-23,879.0452083333333,,1120.9964166666666
420,2016-07-24,885.6836666666667,,1132.3195416666667
420,2016-07-25,864.9026666666667,,1111.5563750000001
420,2016-07-26,524.4035416666667,,712.8485416666667
420,2016-07-27,759.9554166666667,,1007.782375
420,2016-07-28,884.627,,1132.3766249999999
420,2016-07-29,883.1426666666666,,1128.8576666666665
420,2016-07-30,863.6046249999999,,1086.85525
420,2016-07-31,864.2061666666667,,1087.4935
420,2016-08-01,740.5781666666667,,907.9934166666667
420,2016-08-02,780.4895833333334,,944.3051250000001
420,2016-08-03,882.145875,,1128.9305416666666
420,2016-08-04,777.1225833333333,,985.7540416666666
420,2016-08-05,840.705875,,1039.1864166666667
420,2016-08-06,837.9524166666666,,1036.5831249999999
420,2016-08-07,678.856,,867.6567083333333
420,2016-08-08,657.6374166666667,,840.6205416666667
420,2016-08-09,33.589666666666666,,41.679874999999996
420,2016-08-10,649.3502916666666,,800.601375
420,2016-08-11,780.072,,962.6248333333333
420,2016-08-12,874.7181666666667,,1156.860375
420,2016-08-13,876.457375,,1205.7892083333334
420,2016-08-14,867.7552083333334,,1165.0357083333333
420,2016-08-15,875.5076250000001,,1128.1337083333333
420,2016-08-16,901.9609583333332,,1137.1409999999998
420,2016-08-17,864.3057083333333,,1103.3229166666665
420,2016-08-18,917.2157083333333,,1191.1877916666667
420,2016-08-19,934.5124583333333,,1207.247375
420,2016-08-20,895.9135833333333,,1142.5562916666668
420,2016-08-21,895.8062083333333,,1142.4205833333333
420,2016-08-22,915.3972916666667,,1168.3677916666666
420,2016-08-23,917.692375,,1196.877
420,2016-08-24,926.1967916666667,,1208.3273333333334
420,2016-08-25,912.476875,,1167.434
420,2016-08-26,975.004625,,1250.8365416666668
420,2016-08-27,869.2289583333333,,1077.1053749999999
420,2016-08-28,847.2945833333333,,1045.3258333333333
420,2016-08-29,884.8304166666667,,1105.700625
420,2016-08-30,915.870625,,1167.0194583333334
420,2016-08-31,970.6470416666666,,1265.6915833333333
420,2016-09-01,794.1709166666666,,988.0402499999999
420,2016-09-02,973.4099583333333,,1268.6582916666666
420,2016-09-03,959.3708333333334,,1219.6640833333333
420,2016-09-04,948.776375,,1202.0105
420,2016-09-05,938.8202500000001,,1181.474375
420,2016-09-06,870.1154166666666,,1166.6452083333334
420,2016-09-07,904.1332083333333,,1189.22625
420,2016-09-08,880.1234583333334,,1134.96
420,2016-09-09,897.7181666666667,,1113.6529583333333
420,2016-09-10,936.0958333333333,,1174.3699166666665
420,2016-09-11,842.7624999999999,,1024.562
420,2016-09-12,866.16925,,1065.4950000000001
420,2016-09-13,887.4549583333334,,1085.9922916666667
420,2016-09-14,890.36975,,1088.5365416666666
420,2016-09-15,893.0882916666666,,1091.6385833333334
420,2016-09-16,917.0057916666666,,1153.8249583333331
420,2016-09-17,902.7784166666667,,1107.641875
420,2016-09-18,858.6338333333333,,1050.880625
420,2016-09-19,862.759125,,1071.38525
420,2016-09-20,879.2384166666667,,1076.6931666666667
420,2016-09-21,847.5221666666666,,1092.838875
420,2016-09-22,923.1066666666667,,1147.1754166666667
420,2016-09-23,930.0219999999999,,1169.2575416666666
420,2016-09-24,873.35775,,1072.200875
420,2016-09-25,873.3066666666667,,1071.9461666666666
420,2016-09-26,888.6687499999999,,1099.92875
420,2016-09-27,848.3064583333334,,1042.9359166666668
420,2016-09-28,863.8661666666667,,1061.5586250000001
420,2016-09-29,858.2263333333334,,1043.2597500000002
420,2016-09-30,987.3802916666667,,1278.3790000000001
420,2016-10-01,957.025375,,1214.6809166666667
420,2016-10-02,971.9775833333333,,1244.6647916666666
420,2016-10-03,930.3610416666667,,1179.5708333333332
420,2016-10-04,890.6558333333334,,1115.442125
420,2016-10-05,885.9924166666666,,1115.1930833333333
420,2016-10-06,913.0848333333333,,1157.3087083333332
420,2016-10-07,919.9999583333333,,1170.465
420,2016-10-08,855.3155416666667,,1060.937875
420,2016-10-09,858.0775833333333,,1060.2197916666667
420,2016-10-10,858.1037083333334,,1081.0913333333335
420,2016-10-11,881.901875,,1108.7125416666668
420,2016-10-12,949.5480416666666,,1200.1710416666665
420,2016-10-13,880.5906249999999,,1062.0008333333333
420,2016-10-14,914.0764583333333,,1161.746
420,2016-10-15,849.109625,,1047.376875
420,2016-10-16,848.8740833333333,,1046.8874999999998
420,2016-10-17,856.9788333333332,,1073.7048333333332
420,2016-10-18,834.842125,,1070.6347916666666
420,2016-10-19,893.2311249999999,,1120.6839583333333
420,2016-10-20,933.8004999999999,,1172.4749166666666
420,2016-10-21,909.7078333333334,,1138.6382083333333
420,2016-10-22,823.0042083333333,,1021.4674166666666
420,2016-10-23,781.868375,,980.2700833333333
420,2016-10-24,783.5267083333333,,987.3130833333333
420,2016-10-25,820.1408333333334,,1026.00025
420,2016-10-26,866.1988333333334,,1070.2146666666667
420,2016-10-27,834.9342083333332,,1047.0596249999999
420,2016-10-28,932.4065833333334,,1174.37875
420,2016-10-29,794.7620833333334,,948.7497083333334
420,2016-10-30,792.8215,,918.2709166666667
420,2016-10-31,742.377375,,786.0345416666667
420,2016-11-01,726.0254583333334,,951.8750000000001
420,2016-11-02,720.9520416666666,,1114.3990416666666
420,2016-11-03,739.6290833333334,,1130.2087916666667
420,2016-11-04,833.562875,,1137.1249583333333
420,2016-11-05,897.7301666666667,,1096.39975
420,2016-11-06,848.145125,,1037.9022083333334
420,2016-11-07,775.17425,,981.3607083333334
420,2016-11-08,694.5009166666667,,893.9632083333335
420,2016-11-09,863.7460416666667,,1063.626
420,2016-11-10,902.0228333333333,,1114.1447083333333
420,2016-11-11,832.2817916666667,,1038.4703333333332
420,2016-11-12,720.3712916666667,,788.7732083333334
420,2016-11-13,699.1052083333334,,699.1052083333334
420,2016-11-14,660.4846666666666,,660.4846666666666
420,2016-11-15,759.1455,,819.020375
420,2016-11-16,704.9372083333333,,817.8900833333332
420,2016-11-17,852.0567083333334,,1007.1325
420,2016-11-18,840.6063333333333,,984.1685833333333
420,2016-11-19,798.3797083333334,,897.3941666666667
420,2016-11-20,733.3897916666666,,767.6429166666666
420,2016-11-21,699.4082083333333,,699.4082083333333
420,2016-11-22,699.2957916666666,,699.2957916666666
420,2016-11-23,699.2050416666666,,699.2050416666666
420,2016-11-24,698.9273750000001,,698.9273750000001
420,2016-11-25,688.4525,,896.9571666666667
420,2016-11-26,745.7140416666666,,1140.8385416666665
420,2016-11-27,732.2220833333334,,1117.533625
420,2016-11-28,739.3356666666667,,987.1162916666667
420,2016-11-29,761.0622083333333,,860.7718749999999
420,2016-11-30,635.254625,,635.254625
420,2016-12-01,752.5345833333334,,809.8660833333334
420,2016-12-02,793.9923333333332,,892.8624583333333
420,2016-12-03,691.4790416666666,,701.5945416666666
420,2016-12-04,697.0112916666667,,697.0112916666667
420,2016-12-05,702.055875,,785.0929166666667
420,2016-12-06,673.9920000000001,,750.1332500000001
420,2016-12-07,689.2810416666666,,829.0993333333333
420,2016-12-08,693.5445,,693.5445
420,2016-12-09,777.6230833333334,,856.5172500000001
420,2016-12-10,673.96525,,689.2161666666666
420,2016-12-11,768.5935416666666,,837.7975833333333
420,2016-12-12,795.5067083333333,,912.1030416666666
420,2016-12-13,841.825875,,989.49275
420,2016-12-14,916.3354583333333,,1135.491125
420,2016-12-15,959.8724166666666,,1310.8949166666666
420,2016-12-16,1004.361,,1310.4124166666666
420,2016-12-17,927.1984583333333,,1155.759875
420,2016-12-18,861.2416666666667,,1074.2438750000001
420,2016-12-19,776.7314583333333,,861.45775
420,2016-12-20,809.6134999999999,,925.4226666666666
420,2016-12-21,847.7908333333334,,1004.4583333333334
420,2016-12-22,941.2576250000001,,1204.5525833333334
420,2016-12-23,935.8065416666667,,1233.1692083333332
420,2016-12-24,1018.195875,,1337.0524583333333
420,2016-12-25,912.6654583333334,,1126.0767916666668
420,2016-12-26,752.12225,,805.616625
420,2016-12-27,673.0466666666667,,673.0466666666667
420,2016-12-28,691.9810833333332,,691.9810833333332
420,2016-12-29,678.7280416666666,,681.1285833333333
420,2016-12-30,677.5710416666667,,677.5710416666667
420,2016-12-31,678.5625416666667,,678.5625416666667
420,2017-01-01,688.050875,,688.050875
420,2017-01-02,671.7763333333334,,671.7763333333334
420,2017-01-03,661.229625,,661.229625
420,2017-01-04,633.120625,,633.120625
420,2017-01-05,844.936875,,997.4739999999999
420,2017-01-06,1060.991875,,1431.425125
420,2017-01-07,972.8905833333333,,1247.791375
420,2017-01-08,917.091125,,1136.1046666666666
420,2017-01-09,806.15175,,926.7532916666667
420,2017-01-10,739.7564583333333,,799.6287916666666
420,2017-01-11,843.0807916666666,,1018.531
420,2017-01-12,884.269875,,1078.2174166666666
420,2017-01-13,951.923375,,1206.0639999999999
420,2017-01-14,921.4490000000001,,1144.6152083333334
420,2017-01-15,873.0810833333334,,1047.8007916666668
420,2017-01-16,750.6994166666667,,803.0049166666668
420,2017-01-17,685.3605416666666,,740.3933333333332
420,2017-01-18,736.4854999999999,,798.7919583333332
420,2017-01-19,745.8262916666666,,819.4908333333333
420,2017-01-20,793.212,,908.7392083333333
420,2017-01-21,798.2366666666667,,897.97525
420,2017-01-22,798.1954166666666,,897.9168749999999
420,2017-01-23,823.3611666666667,,948.4327916666667
420,2017-01-24,856.7154999999999,,1015.0719166666665
420,2017-01-25,721.7120833333333,,901.2425
420,2017-01-26,813.4087083333334,,1103.9215833333333
420,2017-01-27,988.9304166666667,,1279.0604583333334
420,2017-01-28,968.7028333333333,,1238.4557083333334
420,2017-01-29,926.8461666666667,,1154.8369583333333
420,2017-01-30,805.6261666666666,,932.6219166666666
420,2017-01-31,651.2408750000001,,651.2408750000001
420,2017-02-01,742.7253333333333,,791.26675
420,2017-02-02,874.6766250000001,,1050.6522916666668
420,2017-02-03,895.1499166666667,,1091.435
420,2017-02-04,847.7637916666666,,996.8238749999999
420,2017-02-05,847.9273333333334,,996.888625
420,2017-02-06,826.577375,,1009.0222083333333
420,2017-02-07,815.5584166666666,,936.3208333333333
420,2017-02-08,883.2714583333333,,1068.4852916666666
420,2017-02-09,885.3224583333334,,1072.8305416666667
420,2017-02-10,871.0108749999999,,1043.3116666666665
420,2017-02-11,798.649375,,898.1449166666666
420,2017-02-12,731.46875,,764.2989583333333
420,2017-02-13,672.6924166666666,,672.6924166666666
420,2017-02-14,698.9550416666666,,698.9550416666666
420,2017-02-15,780.0059166666666,,867.1737083333333
420,2017-02-16,914.7290416666666,,1130.7110833333334
420,2017-02-17,932.4270416666667,,1166.08925
420,2017-02-18,829.8127916666667,,960.782375
420,2017-02-19,844.3427083333332,,993.130875
420,2017-02-20,872.5320416666667,,1046.1254166666668
420,2017-02-21,959.0667083333333,,1219.4650833333333
420,2017-02-22,1020.4449166666667,,1341.954375
420,2017-02-23,1044.2067083333334,,1389.4700416666667
420,2017-02-24,1015.8088750000001,,1332.7886250000001
420,2017-02-25,823.1773750000001,,1100.5922500000001
420,2017-02-26,736.714875,,1124.6348333333333
420,2017-02-27,790.8098333333334,,1085.1270416666666
420,2017-02-28,840.1884166666667,,1088.4934166666667
420,2017-03-01,930.752,,1171.40725
420,2017-03-02,877.6007083333334,,1098.8846250000001
420,2017-03-03,976.1300833333333,,1253.8283333333334
420,2017-03-04,970.5219583333333,,1243.0133333333333
420,2017-03-05,971.1382916666666,,1243.8297916666666
420,2017-03-06,961.116125,,1223.6727916666666
420,2017-03-07,990.6435833333334,,1314.9664166666666
420,2017-03-08,1074.032625,,1461.3190833333333
420,2017-03-09,1007.7272916666667,,1402.520125
420,2017-03-10,1067.6341666666667,,1462.357
420,2017-03-11,1092.082875,,1485.6983750000002
420,2017-03-12,1041.3854583333334,,1413.8962083333333
420,2017-03-13,992.6952083333334,,1290.4285416666667
420,2017-03-14,795.8871666666668,,909.8630833333334
420,2017-03-15,825.6577916666666,,955.8135
420,2017-03-16,928.2971666666667,,1175.2329583333335
420,2017-03-17,973.8525416666666,,1254.638
420,2017-03-18,1022.2775,,1345.7115000000001
420,2017-03-19,1045.4718333333333,,1392.0894166666667
420,2017-03-20,1027.0677083333333,,1356.1861666666666
420,2017-03-21,1007.1365833333333,,1319.1055416666666
420,2017-03-22,1004.2346666666667,,1315.5177083333333
420,2017-03-23,943.2488750000001,,1195.1091250000002
420,2017-03-24,1041.3083333333334,,1383.7392083333334
420,2017-03-25,1038.9560416666666,,1379.0081249999998
420,2017-03-26,1058.524625,,1418.1179166666666
420,2017-03-27,985.0031666666667,,1315.9164166666667
420,2017-03-28,991.7649583333333,,1296.4113333333332
420,2017-03-29,1045.2265,,1391.4490833333334
420,2017-03-30,995.1380416666666,,1297.1618333333333
420,2017-03-31,1023.1775833333332,,1349.5742916666666
420,2017-04-01,907.1645833333333,,1123.2996666666668
420,2017-04-02,966.0027916666667,,1235.8688333333334
420,2017-04-03,971.3165416666667,,1245.903875
420,2017-04-04,1003.7749166666667,,1309.06475
420,2017-04-05,1039.9904583333334,,1381.1884583333335
420,2017-04-06,1065.8521666666668,,1433.1436666666668
420,2017-04-07,1065.1914583333335,,1431.7987083333335
420,2017-04-08,986.3690416666667,,1273.9675
420,2017-04-09,1007.0754166666667,,1315.3602083333333
420,2017-04-10,964.846625,,1251.6987916666667
420,2017-04-11,887.9744166666666,,1119.6178333333332
420,2017-04-12,966.9510833333334,,1242.6274583333334
420,2017-04-13,983.8887083333334,,1268.961375
420,2017-04-14,1044.7572083333332,,1390.8405833333331
420,2017-04-15,1045.181375,,1391.45075
420,2017-04-16,1045.4714999999999,,1391.9169583333332
420,2017-04-17,999.6159166666666,,1300.8474583333332
420,2017-04-18,903.4567916666666,,1123.354625
420,2017-04-19,892.1272916666667,,1130.6004166666667
420,2017-04-20,927.5895,,1195.2543333333333
420,2017-04-21,951.7068333333333,,1260.1459166666666
420,2017-04-22,996.11625,,1293.359625
420,2017-04-23,983.9210416666666,,1269.0625
420,2017-04-24,808.0790000000001,,1149.4779583333334
420,2017-04-25,725.9997083333333,,1101.5367916666667
420,2017-04-26,786.4769583333333,,1139.5012083333334
420,2017-04-27,839.4728749999999,,1126.5225416666667
420,2017-04-28,950.1143333333333,,1301.0223333333333
420,2017-04-29,39.652791666666666,,54.72154166666667
420,2017-04-30,535.9514583333333,,700.9759583333333
420,2017-05-01,902.2596666666667,,1217.0993333333333
420,2017-05-02,833.7368333333334,,1118.2040833333333
420,2017-05-03,831.9132083333334,,1114.4812916666667
420,2017-05-04,742.516,,931.6382083333333
420,2017-05-05,906.1130833333333,,1237.930875
420,2017-05-06,906.4376666666667,,1252.2241666666666
420,2017-05-07,894.9482083333334,,1240.7354166666667
420,2017-05-08,919.5596666666667,,1256.4869583333334
420,2017-05-09,961.1010833333333,,1321.1171666666667
420,2017-05-10,966.2569166666667,,1328.0647916666667
420,2017-05-11,931.6379166666667,,1274.7854166666666
420,2017-05-12,745.33975,,920.9464583333333
420,2017-05-13,886.976,,1232.9806666666666
420,2017-05-14,894.9697083333334,,1240.6312083333335
420,2017-05-15,783.1314583333333,,1160.3609583333332
420,2017-05-16,733.0605,,1116.52725
420,2017-05-17,728.7097916666667,,1079.0899583333332
420,2017-05-18,640.8800833333333,,1000.4805416666667
420,2017-05-19,705.325625,,1061.5721666666666
420,2017-05-20,732.482125,,1115.9418333333333
420,2017-05-21,737.1210416666667,,1125.1909166666667
420,2017-05-22,700.4700416666666,,1052.4848333333332
420,2017-05-23,686.6765416666667,,1024.201
420,2017-05-24,696.1029583333334,,1042.9814583333334
420,2017-05-25,694.863375,,1040.39525
420,2017-05-26,864.358875,,1216.7250416666666
420,2017-05-27,995.3824166666667,,1341.5839583333334
420,2017-05-28,886.6067083333334,,1184.3111666666666
420,2017-05-29,883.0372083333333,,1156.614
420,2017-05-30,828.7005,,1051.2698333333333
420,2017-05-31,783.4752083333333,,1000.3634166666666
420,2017-06-01,777.7530416666667,,1040.2795833333334
420,2017-06-02,804.0012916666666,,1084.5748749999998
420,2017-06-03,848.0276666666667,,1096.10375
420,2017-06-04,812.2750416666667,,1050.7065416666667
420,2017-06-05,773.2978750000001,,1015.4605833333334
420,2017-06-06,779.2097083333333,,1037.8509583333334
420,2017-06-07,865.113375,,1134.13775
420,2017-06-08,823.36975,,1070.92075
420,2017-06-09,915.6047083333333,,1184.6956666666665
420,2017-06-10,890.4382916666667,,1154.2585000000001
420,2017-06-11,859.7815,,1101.647375
420,2017-06-12,847.5529583333333,,1128.5737083333333
420,2017-06-13,849.437875,,1152.4848749999999
420,2017-06-14,900.2896666666667,,1214.392875
420,2017-06-15,798.827375,,988.9419166666667
420,2017-06-16,853.6302083333334,,1111.8278333333333
420,2017-06-17,806.196375,,1025.859625
420,2017-06-18,755.9840416666666,,967.4329999999999
420,2017-06-19,748.916875,,964.6592083333334
420,2017-06-20,665.7262916666667,,887.6949166666667
420,2017-06-21,844.5296666666667,,1116.7254166666667
420,2017-06-22,869.1112916666666,,1149.812125
420,2017-06-23,881.9351666666666,,1191.6276666666668
420,2017-06-24,839.1405833333333,,1135.76125
420,2017-06-25,851.57575,,1148.873
420,2017-06-26,836.2416666666667,,1146.1887083333334
420,2017-06-27,835.312625,,1134.571
420,2017-06-28,834.0875416666667,,1120.6642916666667
420,2017-06-29,726.2413750000001,,1022.9922916666667
420,2017-06-30,803.8932083333334,,1086.6590833333335
420,2017-07-01,810.07225,,1107.34425
420,2017-07-02,800.8982083333334,,1098.1684166666666
420,2017-07-03,805.7594583333333,,1092.860125
420,2017-07-04,698.70075,,897.0500833333333
420,2017-07-05,692.5099583333334,,981.0047083333334
420,2017-07-06,664.71975,,991.8457916666666
420,2017-07-07,651.0021666666667,,974.5006666666666
420,2017-07-08,632.3472916666666,,954.6247916666666
420,2017-07-09,695.984375,,1042.226
420,2017-07-10,823.5894166666667,,1116.4789166666667
420,2017-07-11,881.9179583333333,,1140.9675416666666
420,2017-07-12,852.6494166666666,,1133.6353333333334
420,2017-07-13,812.0185,,1066.0901666666666
420,2017-07-14,889.4560416666667,,1142.5123333333333
420,2017-07-15,861.04425,,1108.714
420,2017-07-16,857.3380833333334,,1104.831875
420,2017-07-17,825.1581666666666,,1055.8286249999999
420,2017-07-18,886.5087916666666,,1151.99525
420,2017-07-19,726.3745,,869.7665833333333
420,2017-07-20,779.4319999999999,,898.3900833333332
420,2017-07-21,696.8423333333334,,699.8505
420,2017-07-22,698.0157083333334,,698.0157083333334
420,2017-07-23,699.2611666666667,,699.2611666666667
420,2017-07-24,698.044875,,698.044875
420,2017-07-25,612.2032916666667,,612.2032916666667
420,2017-07-26,618.866375,,618.866375
420,2017-07-27,686.2154999999999,,686.2154999999999
420,2017-07-28,692.37475,,692.37475
420,2017-07-29,699.3269583333334,,699.3269583333334
420,2017-07-30,699.0289583333333,,699.0289583333333
420,2017-07-31,663.4815833333333,,663.4815833333333
420,2017-08-01,698.0613333333334,,698.5360000000001
420,2017-08-02,694.174625,,694.174625
420,2017-08-03,687.9200000000001,,687.9200000000001
420,2017-08-04,690.2196666666667,,699.7832083333334
420,2017-08-05,652.1521666666666,,982.1393333333333
420,2017-08-06,747.0004166666666,,1143.3687916666668
420,2017-08-07,623.0984583333333,,861.3667916666666
420,2017-08-08,796.1373749999999,,1004.0385833333332
420,2017-08-09,866.7741666666667,,1117.3611666666666
420,2017-08-10,812.1840833333334,,1085.8762083333334
420,2017-08-11,857.647125,,1112.2258333333334
420,2017-08-12,834.6161666666667,,1068.881875
420,2017-08-13,795.361375,,1004.1209166666666
420,2017-08-14,779.8002499999999,,923.2762499999999
420,2017-08-15,868.4610416666666,,1066.6792083333332
420,2017-08-16,803.1173333333332,,973.0633333333333
420,2017-08-17,666.5821666666667,,666.5821666666667
420,2017-08-18,698.1744166666667,,698.1744166666667
420,2017-08-19,698.971,,698.971
420,2017-08-20,699.4809583333334,,699.4809583333334
420,2017-08-21,691.0010833333334,,691.0010833333334
420,2017-08-22,763.2745,,869.2353333333333
420,2017-08-23,896.633875,,1146.9590833333334
420,2017-08-24,850.548625,,1049.4037083333333
420,2017-08-25,829.32125,,1027.9678333333334
420,2017-08-26,784.9081666666666,,983.1791249999999
420,2017-08-27,774.0135,,972.2235833333334
420,2017-08-28,788.0622916666666,,991.9885833333333
420,2017-08-29,891.02025,,1148.4099583333334
420,2017-08-30,964.4687916666667,,1263.5432916666666
420,2017-08-31,734.004,,1027.2804166666667
420,2017-09-01,672.0531666666667,,1005.2786666666667
420,2017-09-02,674.6687083333334,,1010.6322500000001
420,2017-09-03,702.366125,,1065.3875
420,2017-09-04,717.971,,1088.6395
420,2017-09-05,679.130625,,846.3249166666667
420,2017-09-06,617.14125,,762.1544166666666
420,2017-09-07,739.0490416666667,,1128.5395833333332
420,2017-09-08,728.3936666666667,,1107.543875
420,2017-09-09,745.3850833333332,,1141.6878749999998
420,2017-09-10,745.4745833333333,,1141.8618333333334
420,2017-09-11,531.5722083333334,,809.6166666666668
420,2017-09-12,802.2220833333334,,1081.4340416666669
420,2017-09-13,899.7043333333332,,1122.5037499999999
420,2017-09-14,890.9640833333333,,1109.5310833333333
420,2017-09-15,909.7506666666667,,1128.5558333333333
420,2017-09-16,846.3291666666668,,1045.1880416666668
420,2017-09-17,841.658375,,1040.5930833333332
420,2017-09-18,722.3015833333334,,789.26075
420,2017-09-19,698.5075,,698.5075
420,2017-09-20,695.5797916666667,,695.5797916666667
420,2017-09-21,561.383625,,673.745625
420,2017-09-22,784.43825,,1110.899125
420,2017-09-23,798.6759166666667,,996.9441666666667
420,2017-09-24,812.260625,,1024.182875
420,2017-09-25,743.5213333333332,,974.5448749999999